Time,TemperatureF,DewpointF,PressureIn,WindDirection,WindDirectionDegrees,WindSpeedMPH,WindSpeedGustMPH,Humidity,HourlyPrecipIn,Conditions,Clouds,dailyrainin,SoftwareType,DateUTC
2013-06-18 00:02:00,58.0,51.0,29.97,ENE,76,1.0,7.0,78,0.00,,,0.05,,2013-06-18 05:02:00,
2013-06-18 00:12:00,58.0,51.0,29.97,NE,44,0.0,5.0,78,0.00,,,0.05,,2013-06-18 05:12:00,
2013-06-18 00:22:00,58.0,51.0,29.97,NW,312,1.0,8.0,78,0.00,,,0.05,,2013-06-18 05:22:00,
2013-06-18 00:34:00,58.0,51.0,29.97,East,84,2.0,7.0,78,0.00,,,0.05,,2013-06-18 05:34:00,
2013-06-18 00:43:00,58.0,51.0,29.96,NNE,18,1.0,5.0,78,0.00,,,0.05,,2013-06-18 05:43:00,
2013-06-18 00:53:00,57.0,50.0,29.96,NNE,20,1.0,5.0,78,0.00,,,0.05,,2013-06-18 05:53:00,
2013-06-18 01:02:00,57.0,50.0,29.96,NE,41,0.0,3.0,78,0.00,,,0.05,,2013-06-18 06:02:00,
2013-06-18 01:11:00,57.0,50.0,29.96,NW,307,1.0,7.0,77,0.00,,,0.05,,2013-06-18 06:11:00,
2013-06-18 01:23:00,57.0,50.0,29.96,ENE,68,1.0,12.0,78,0.00,,,0.05,,2013-06-18 06:23:00,
2013-06-18 01:32:00,57.0,51.0,29.97,ENE,77,2.0,8.0,81,0.00,,,0.05,,2013-06-18 06:32:00,
2013-06-18 01:43:00,57.0,52.0,29.97,East,89,1.0,6.0,82,0.00,,,0.05,,2013-06-18 06:43:00,
2013-06-18 01:52:00,56.0,51.0,29.97,NNE,23,2.0,11.0,83,0.00,,,0.05,,2013-06-18 06:52:00,
2013-06-18 02:02:00,56.0,51.0,29.97,West,281,4.0,8.0,83,0.00,,,0.05,,2013-06-18 07:02:00,
2013-06-18 02:12:00,56.0,51.0,29.98,North,357,2.0,9.0,83,0.00,,,0.05,,2013-06-18 07:12:00,
2013-06-18 02:22:00,56.0,51.0,29.98,NE,56,1.0,6.0,83,0.00,,,0.05,,2013-06-18 07:22:00,
2013-06-18 02:33:00,56.0,51.0,29.98,ENE,63,2.0,8.0,83,0.00,,,0.05,,2013-06-18 07:33:00,
2013-06-18 02:43:00,56.0,51.0,29.98,NE,56,1.0,9.0,84,0.00,,,0.05,,2013-06-18 07:43:00,
2013-06-18 02:52:00,56.0,51.0,29.98,ENE,70,1.0,9.0,84,0.00,,,0.05,,2013-06-18 07:52:00,
2013-06-18 03:01:00,55.0,50.0,29.98,ENE,69,2.0,7.0,84,0.00,,,0.05,,2013-06-18 08:01:00,
2013-06-18 03:11:00,55.0,50.0,29.98,NNW,340,0.0,7.0,84,0.00,,,0.05,,2013-06-18 08:11:00,
2013-06-18 03:23:00,55.0,51.0,29.98,North,1,1.0,5.0,85,0.00,,,0.05,,2013-06-18 08:23:00,
2013-06-18 03:33:00,54.0,50.0,29.98,East,84,0.0,6.0,85,0.00,,,0.05,,2013-06-18 08:33:00,
2013-06-18 03:43:00,54.0,50.0,29.98,East,89,0.0,8.0,85,0.00,,,0.05,,2013-06-18 08:43:00,
2013-06-18 03:52:00,54.0,50.0,29.98,ENE,60,0.0,7.0,85,0.00,,,0.05,,2013-06-18 08:52:00,
2013-06-18 04:02:00,54.0,50.0,29.98,NNW,327,1.0,8.0,86,0.00,,,0.05,,2013-06-18 09:02:00,
2013-06-18 04:12:00,54.0,50.0,29.98,ENE,77,1.0,10.0,86,0.00,,,0.05,,2013-06-18 09:12:00,
2013-06-18 04:22:00,54.0,50.0,29.97,ENE,62,2.0,8.0,86,0.00,,,0.05,,2013-06-18 09:22:00,
2013-06-18 04:34:00,54.0,50.0,29.98,NE,34,1.0,11.0,87,0.00,,,0.05,,2013-06-18 09:34:00,
2013-06-18 04:43:00,54.0,50.0,29.99,ESE,110,1.0,10.0,87,0.00,,,0.05,,2013-06-18 09:43:00,
2013-06-18 04:53:00,53.0,49.0,29.99,North,355,0.0,7.0,87,0.00,,,0.05,,2013-06-18 09:53:00,
2013-06-18 05:02:00,53.0,50.0,29.99,ENE,68,1.0,10.0,88,0.00,,,0.05,,2013-06-18 10:02:00,
2013-06-18 05:11:00,53.0,50.0,29.99,NNW,330,0.0,5.0,89,0.00,,,0.05,,2013-06-18 10:11:00,
2013-06-18 05:22:00,53.0,50.0,30.00,ENE,65,3.0,9.0,89,0.00,,,0.05,,2013-06-18 10:22:00,
2013-06-18 05:33:00,53.0,50.0,30.00,NNW,334,1.0,7.0,89,0.00,,,0.05,,2013-06-18 10:33:00,
2013-06-18 05:43:00,53.0,50.0,30.01,ESE,104,0.0,7.0,90,0.00,,,0.05,,2013-06-18 10:43:00,
2013-06-18 05:53:00,52.0,49.0,30.01,North,4,3.0,10.0,90,0.00,,,0.05,,2013-06-18 10:53:00,
2013-06-18 06:02:00,52.0,49.0,30.01,North,4,3.0,10.0,90,0.00,,,0.05,,2013-06-18 11:02:00,
2013-06-18 06:11:00,52.0,49.0,30.02,ENE,65,4.0,9.0,91,0.00,,,0.05,,2013-06-18 11:11:00,
2013-06-18 06:22:00,52.0,49.0,30.02,East,86,1.0,9.0,91,0.00,,,0.05,,2013-06-18 11:22:00,
2013-06-18 06:32:00,52.0,49.0,30.02,East,91,1.0,6.0,91,0.00,,,0.05,,2013-06-18 11:32:00,
2013-06-18 06:43:00,52.0,49.0,30.03,NE,56,1.0,10.0,91,0.00,,,0.05,,2013-06-18 11:43:00,
2013-06-18 06:52:00,53.0,50.0,30.03,NNE,13,2.0,6.0,91,0.00,,,0.05,,2013-06-18 11:52:00,
2013-06-18 07:01:00,53.0,50.0,30.03,NNE,19,1.0,7.0,90,0.00,,,0.05,,2013-06-18 12:01:00,
2013-06-18 07:11:00,53.0,50.0,30.03,NNE,13,2.0,7.0,91,0.00,,,0.05,,2013-06-18 12:11:00,
2013-06-18 07:22:00,54.0,51.0,30.03,North,354,1.0,5.0,90,0.00,,,0.05,,2013-06-18 12:22:00,
2013-06-18 07:33:00,55.0,52.0,30.03,NE,56,1.0,5.0,88,0.00,,,0.05,,2013-06-18 12:33:00,
2013-06-18 07:43:00,56.0,52.0,30.04,ENE,70,0.0,6.0,85,0.00,,,0.05,,2013-06-18 12:43:00,
2013-06-18 07:52:00,57.0,53.0,30.04,NNW,338,0.0,5.0,85,0.00,,,0.05,,2013-06-18 12:52:00,
2013-06-18 08:02:00,57.0,53.0,30.05,ESE,105,1.0,6.0,85,0.00,,,0.05,,2013-06-18 13:02:00,
2013-06-18 08:12:00,58.0,53.0,30.05,East,84,3.0,6.0,84,0.00,,,0.05,,2013-06-18 13:12:00,
2013-06-18 08:22:00,58.0,53.0,30.04,East,92,2.0,8.0,84,0.00,,,0.05,,2013-06-18 13:22:00,
2013-06-18 08:33:00,58.0,54.0,30.06,East,84,2.0,7.0,86,0.00,,,0.05,,2013-06-18 13:33:00,
2013-06-18 08:43:00,58.0,54.0,30.06,East,84,2.0,7.0,86,0.00,,,0.05,,2013-06-18 13:43:00,
2013-06-18 08:52:00,58.0,54.0,30.06,SW,224,2.0,6.0,86,0.00,,,0.05,,2013-06-18 13:52:00,
2013-06-18 09:02:00,59.0,54.0,30.06,ENE,77,2.0,6.0,84,0.00,,,0.05,,2013-06-18 14:02:00,
2013-06-18 09:11:00,59.0,54.0,30.06,East,86,3.0,7.0,83,0.00,,,0.05,,2013-06-18 14:11:00,
2013-06-18 09:22:00,60.0,54.0,30.05,ENE,59,1.0,7.0,80,0.00,,,0.05,,2013-06-18 14:22:00,
2013-06-18 09:33:00,61.0,54.0,30.05,ENE,62,2.0,10.0,79,0.00,,,0.05,,2013-06-18 14:33:00,
2013-06-18 09:43:00,61.0,54.0,30.05,ENE,62,2.0,10.0,79,0.00,,,0.05,,2013-06-18 14:43:00,
2013-06-18 09:53:00,62.0,55.0,30.05,NW,321,3.0,8.0,78,0.00,,,0.05,,2013-06-18 14:53:00,
2013-06-18 10:02:00,62.0,54.0,30.05,ENE,64,5.0,9.0,76,0.00,,,0.05,,2013-06-18 15:02:00,
2013-06-18 10:11:00,63.0,55.0,30.05,NW,308,1.0,6.0,75,0.00,,,0.05,,2013-06-18 15:11:00,
2013-06-18 10:22:00,62.0,55.0,30.06,North,8,2.0,8.0,77,0.00,,,0.05,,2013-06-18 15:22:00,
2013-06-18 10:33:00,62.0,55.0,30.06,East,91,3.0,8.0,77,0.00,,,0.05,,2013-06-18 15:33:00,
2013-06-18 10:43:00,62.0,56.0,30.06,NNE,31,3.0,8.0,80,0.00,,,0.05,,2013-06-18 15:43:00,
2013-06-18 10:53:00,63.0,56.0,30.06,NE,49,1.0,5.0,77,0.00,,,0.05,,2013-06-18 15:53:00,
2013-06-18 11:01:00,62.0,55.0,30.06,East,85,2.0,10.0,78,0.00,,,0.05,,2013-06-18 16:01:00,
2013-06-18 11:11:00,61.0,54.0,30.06,NW,308,0.0,8.0,78,0.00,,,0.05,,2013-06-18 16:11:00,
2013-06-18 11:22:00,61.0,54.0,30.06,ENE,63,2.0,8.0,78,0.00,,,0.05,,2013-06-18 16:22:00,
2013-06-18 11:33:00,63.0,55.0,30.06,ENE,65,4.0,10.0,75,0.00,,,0.05,,2013-06-18 16:33:00,
2013-06-18 11:43:00,63.0,55.0,30.06,NNE,23,6.0,9.0,74,0.00,,,0.05,,2013-06-18 16:43:00,
2013-06-18 11:53:00,63.0,55.0,30.06,NNE,20,4.0,9.0,74,0.00,,,0.05,,2013-06-18 16:53:00,
2013-06-18 12:02:00,63.0,54.0,30.06,NNW,333,4.0,9.0,72,0.00,,,0.05,,2013-06-18 17:02:00,
2013-06-18 12:11:00,63.0,53.0,30.06,ENE,67,2.0,11.0,71,0.00,,,0.05,,2013-06-18 17:11:00,
2013-06-18 12:22:00,64.0,54.0,30.06,WSW,250,1.0,9.0,71,0.00,,,0.05,,2013-06-18 17:22:00,
2013-06-18 12:33:00,64.0,54.0,30.06,ENE,77,4.0,10.0,71,0.00,,,0.05,,2013-06-18 17:33:00,
2013-06-18 12:43:00,64.0,55.0,30.06,ENE,77,2.0,9.0,72,0.00,,,0.05,,2013-06-18 17:43:00,
2013-06-18 12:53:00,65.0,56.0,30.06,ENE,74,4.0,11.0,73,0.00,,,0.05,,2013-06-18 17:53:00,
2013-06-18 13:02:00,64.0,53.0,30.06,SE,146,4.0,11.0,68,0.00,,,0.05,,2013-06-18 18:02:00,
2013-06-18 13:11:00,64.0,53.0,30.07,East,98,2.0,10.0,68,0.00,,,0.05,,2013-06-18 18:11:00,
2013-06-18 13:22:00,65.0,55.0,30.07,ESE,108,1.0,9.0,69,0.00,,,0.05,,2013-06-18 18:22:00,
2013-06-18 13:33:00,65.0,53.0,30.07,ESE,118,3.0,11.0,66,0.00,,,0.05,,2013-06-18 18:33:00,
2013-06-18 13:42:00,65.0,53.0,30.07,East,80,4.0,9.0,64,0.00,,,0.05,,2013-06-18 18:42:00,
2013-06-18 13:53:00,65.0,50.0,30.06,ESE,121,3.0,10.0,59,0.00,,,0.05,,2013-06-18 18:53:00,
2013-06-18 14:01:00,66.0,51.0,30.06,NE,48,2.0,8.0,58,0.00,,,0.05,,2013-06-18 19:01:00,
2013-06-18 14:11:00,66.0,52.0,30.07,East,82,2.0,8.0,61,0.00,,,0.05,,2013-06-18 19:11:00,
2013-06-18 14:22:00,67.0,53.0,30.07,NNE,15,2.0,8.0,60,0.00,,,0.05,,2013-06-18 19:22:00,
2013-06-18 14:33:00,67.0,51.0,30.07,NNW,335,2.0,9.0,57,0.00,,,0.05,,2013-06-18 19:33:00,
2013-06-18 14:43:00,67.0,51.0,30.07,East,98,3.0,11.0,56,0.00,,,0.05,,2013-06-18 19:43:00,
2013-06-18 14:52:00,67.0,51.0,30.07,NE,47,5.0,10.0,57,0.00,,,0.05,,2013-06-18 19:52:00,
2013-06-18 15:02:00,66.0,50.0,30.07,ENE,70,2.0,9.0,57,0.00,,,0.05,,2013-06-18 20:02:00,
2013-06-18 15:11:00,67.0,51.0,30.07,North,8,0.0,7.0,57,0.00,,,0.05,,2013-06-18 20:11:00,
2013-06-18 15:23:00,67.0,50.0,30.07,East,79,2.0,8.0,54,0.00,,,0.05,,2013-06-18 20:23:00,
2013-06-18 15:33:00,67.0,48.0,30.07,ENE,77,4.0,9.0,51,0.00,,,0.05,,2013-06-18 20:33:00,
2013-06-18 15:43:00,66.0,50.0,30.07,WNW,295,1.0,8.0,57,0.00,,,0.05,,2013-06-18 20:43:00,
2013-06-18 15:52:00,67.0,50.0,30.07,East,94,0.0,11.0,55,0.00,,,0.05,,2013-06-18 20:52:00,
2013-06-18 16:01:00,66.0,50.0,30.07,NE,39,4.0,15.0,57,0.00,,,0.05,,2013-06-18 21:01:00,
2013-06-18 16:11:00,67.0,51.0,30.07,East,89,1.0,6.0,57,0.00,,,0.05,,2013-06-18 21:11:00,
2013-06-18 16:23:00,66.0,51.0,30.07,NE,40,4.0,9.0,58,0.00,,,0.05,,2013-06-18 21:23:00,
2013-06-18 16:33:00,66.0,50.0,30.07,NW,325,3.0,8.0,57,0.00,,,0.05,,2013-06-18 21:33:00,
2013-06-18 16:43:00,66.0,50.0,30.07,North,5,2.0,8.0,57,0.00,,,0.05,,2013-06-18 21:43:00,
2013-06-18 16:52:00,66.0,51.0,30.07,East,94,4.0,10.0,58,0.00,,,0.05,,2013-06-18 21:52:00,
2013-06-18 17:01:00,66.0,51.0,30.07,East,94,4.0,10.0,58,0.00,,,0.05,,2013-06-18 22:01:00,
2013-06-18 17:11:00,65.0,48.0,30.07,East,86,3.0,7.0,55,0.00,,,0.05,,2013-06-18 22:11:00,
2013-06-18 17:22:00,65.0,48.0,30.07,ENE,72,4.0,8.0,55,0.00,,,0.00,,2013-06-18 22:22:00,
2013-06-18 17:34:00,65.0,48.0,30.06,ENE,68,2.0,8.0,55,0.00,,,0.00,,2013-06-18 22:34:00,
2013-06-18 17:43:00,65.0,48.0,30.06,ENE,65,3.0,9.0,55,0.00,,,0.00,,2013-06-18 22:43:00,
2013-06-18 17:53:00,65.0,47.0,30.07,NE,56,2.0,9.0,53,0.00,,,0.00,,2013-06-18 22:53:00,
2013-06-18 18:02:00,64.0,47.0,30.06,East,84,3.0,11.0,54,0.00,,,0.00,,2013-06-18 23:02:00,
2013-06-18 18:11:00,64.0,47.0,30.06,ENE,63,3.0,9.0,54,0.00,,,0.00,,2013-06-18 23:11:00,
2013-06-18 18:23:00,64.0,47.0,30.07,East,87,3.0,10.0,54,0.00,,,0.00,,2013-06-18 23:23:00,
2013-06-18 18:36:00,64.0,47.0,30.07,NE,56,1.0,9.0,54,0.00,,,0.00,,2013-06-18 23:36:00,
2013-06-18 18:45:00,63.0,46.0,30.07,ENE,62,3.0,9.0,54,0.00,,,0.00,,2013-06-18 23:45:00,
2013-06-18 18:53:00,63.0,47.0,30.07,East,84,2.0,13.0,55,0.00,,,0.00,,2013-06-18 23:53:00,
2013-06-18 19:01:00,62.0,45.0,30.07,North,11,3.0,9.0,54,0.00,,,0.00,,2013-06-19 00:01:00,
2013-06-18 19:11:00,62.0,46.0,30.07,East,90,3.0,6.0,55,0.00,,,0.00,,2013-06-19 00:11:00,
2013-06-18 19:22:00,62.0,47.0,30.08,East,86,2.0,8.0,57,0.00,,,0.00,,2013-06-19 00:22:00,
2013-06-18 19:33:00,62.0,47.0,30.08,NW,322,1.0,8.0,59,0.00,,,0.00,,2013-06-19 00:33:00,
2013-06-18 19:43:00,61.0,47.0,30.07,East,81,2.0,8.0,60,0.00,,,0.00,,2013-06-19 00:43:00,
2013-06-18 19:53:00,61.0,47.0,30.07,East,81,2.0,8.0,60,0.00,,,0.00,,2013-06-19 00:53:00,
2013-06-18 20:01:00,61.0,47.0,30.07,East,83,3.0,8.0,59,0.00,,,0.00,,2013-06-19 01:01:00,
2013-06-18 20:11:00,60.0,46.0,30.08,NNE,23,3.0,8.0,59,0.00,,,0.00,,2013-06-19 01:11:00,
2013-06-18 20:22:00,60.0,46.0,30.08,NNE,23,3.0,8.0,59,0.00,,,0.00,,2013-06-19 01:22:00,
2013-06-18 20:32:00,60.0,45.0,30.08,NE,49,2.0,7.0,57,0.00,,,0.00,,2013-06-19 01:32:00,
2013-06-18 20:42:00,60.0,45.0,30.08,NE,49,2.0,7.0,57,0.00,,,0.00,,2013-06-19 01:42:00,
2013-06-18 20:53:00,60.0,45.0,30.08,NE,49,2.0,7.0,57,0.00,,,0.00,,2013-06-19 01:53:00,
2013-06-18 21:01:00,59.0,42.0,30.08,ENE,63,2.0,8.0,54,0.00,,,0.00,,2013-06-19 02:01:00,
2013-06-18 21:11:00,59.0,42.0,30.08,ENE,63,2.0,8.0,54,0.00,,,0.00,,2013-06-19 02:11:00,
2013-06-18 21:21:00,59.0,43.0,30.08,North,356,0.0,5.0,56,0.00,,,0.00,,2013-06-19 02:21:00,
2013-06-18 21:32:00,57.0,41.0,30.07,SSW,200,0.0,4.0,56,0.00,,,0.00,,2013-06-19 02:32:00,
2013-06-18 21:42:00,57.0,41.0,30.08,North,350,0.0,4.0,56,0.00,,,0.00,,2013-06-19 02:42:00,
2013-06-18 21:52:00,57.0,41.0,30.08,North,350,0.0,4.0,56,0.00,,,0.00,,2013-06-19 02:52:00,
2013-06-18 22:01:00,56.0,41.0,30.08,NNW,338,0.0,1.0,56,0.00,,,0.00,,2013-06-19 03:01:00,
2013-06-18 22:11:00,55.0,40.0,30.08,ENE,77,0.0,0.0,57,0.00,,,0.00,,2013-06-19 03:11:00,
2013-06-18 22:22:00,55.0,40.0,30.08,ENE,77,0.0,0.0,57,0.00,,,0.00,,2013-06-19 03:22:00,
2013-06-18 22:33:00,55.0,41.0,30.08,ENE,76,0.0,0.0,58,0.00,,,0.00,,2013-06-19 03:33:00,
2013-06-18 22:42:00,54.0,41.0,30.09,ENE,77,0.0,0.0,62,0.00,,,0.00,,2013-06-19 03:42:00,
2013-06-18 22:52:00,54.0,41.0,30.09,ENE,77,0.0,0.0,62,0.00,,,0.00,,2013-06-19 03:52:00,
2013-06-18 23:01:00,53.0,40.0,30.08,North,353,0.0,0.0,62,0.00,,,0.00,,2013-06-19 04:01:00,
2013-06-18 23:11:00,53.0,40.0,30.08,NNW,340,0.0,0.0,61,0.00,,,0.00,,2013-06-19 04:11:00,
2013-06-18 23:22:00,53.0,40.0,30.08,NW,305,0.0,0.0,61,0.00,,,0.00,,2013-06-19 04:22:00,
2013-06-18 23:32:00,53.0,40.0,30.08,NW,305,0.0,0.0,61,0.00,,,0.00,,2013-06-19 04:32:00,
2013-06-18 23:42:00,53.0,40.0,30.08,NW,305,0.0,0.0,61,0.00,,,0.00,,2013-06-19 04:42:00,
2013-06-18 23:53:00,53.0,40.0,30.08,NW,305,0.0,0.0,61,0.00,,,0.00,,2013-06-19 04:53:00,